IMF weather

Imphal Airport
Imphal, Manipur, India

Public forecast

Using degrees Celsius for public forecast. Weather courtesy of forecast.io.

Current aviation weather report (METAR) for Imphal Airport

Retrieved 2019/12/11 12:00 UTC (2 hours ago):

VEIM 111200Z 00000KT 3000 BR FEW018 16/14 Q1014 NOSIG

Aviation forecast (TAF) for Imphal Airport

Forecast is more than 12 hours old.

Retrieved 2017/12/28 12:00 UTC (2 years ago):

TAF VEIM 281100Z 2812/2821 06006KT 4000 BR FEW020 BECMG 2815/2817 00000KT 2000 BR